EW6607 Motilla Del Palancar current weather conditions

sailwx.info

Wind from 274 at 9 knots gusting 12

Air temperature 3.9° C
Dewpoint 3.2° C

Last reported at 2019-Jan-23 00:10 UTC.
Time now 2019-Jan-23 00:46 UTC

Location: N 39°34' W 001°55'.
View on Google Maps.

See reports from other nearby stations

  
Tides and Currents Weather Stations Pressure Air Temp Water Temp Dewpoint Dewpoint Depression Visibility Wind Speed Wind Dir Waves Ship Positions
date/time (UTC)wind fromknots sea level pressurealtimeterstation pressurevisibilityair tempwater tempwave heightnotes
2019-Jan-23 00:10 274 9 gusting 12 3.9
2019-Jan-23 00:00 282 5 gusting 13 3.9
2019-Jan-22 23:50 306 6 gusting 14 3.9
2019-Jan-22 23:40 304 6 gusting 11 3.9
2019-Jan-22 23:30 314 6 gusting 8 3.9
2019-Jan-22 23:20 311 4 gusting 6 3.3
2019-Jan-22 23:10 314 2 gusting 7 3.9
2019-Jan-22 23:00 313 6 gusting 10 3.9
2019-Jan-22 22:50 313 5 gusting 10 3.9
2019-Jan-22 22:40 350 3 gusting 8 3.9
2019-Jan-22 22:30 358 4 gusting 8 3.9
2019-Jan-22 22:20 357 4 gusting 8 3.9
2019-Jan-22 22:10 286 4 gusting 10 3.9
2019-Jan-22 22:00 293 6 gusting 11 3.9
2019-Jan-22 21:50 293 4 gusting 12 3.9
2019-Jan-22 21:40 272 5 gusting 8 3.3
2019-Jan-22 21:30 314 3 gusting 9 3.3
2019-Jan-22 21:20 308 5 gusting 9 3.3
2019-Jan-22 21:10 296 2 gusting 8 3.3
2019-Jan-22 21:00 309 4 gusting 9 3.3
2019-Jan-22 20:50 292 5 gusting 8 3.3
2019-Jan-22 20:40 290 5 gusting 11 2.8
2019-Jan-22 20:30 300 2 gusting 11 2.8
2019-Jan-22 20:20 313 3 gusting 6 2.8
2019-Jan-22 20:10 292 3 gusting 7 2.8
2019-Jan-22 20:00 288 4 gusting 8 2.8
2019-Jan-22 19:50 270 5 gusting 13 2.8
2019-Jan-22 19:40 225 6 gusting 14 2.8
2019-Jan-22 19:30 276 7 gusting 14 3.3
2019-Jan-22 19:20 296 6 gusting 14 3.3
2019-Jan-22 19:10 283 6 gusting 14 3.3
2019-Jan-22 19:00 275 7 gusting 14 3.3
2019-Jan-22 18:50 297 6 gusting 14 3.3
2019-Jan-22 18:40 299 6 gusting 18 3.9
2019-Jan-22 18:30 288 9 gusting 17 3.9
2019-Jan-22 18:20 295 11 gusting 23 3.9
2019-Jan-22 18:10 283 6 gusting 14 3.9
2019-Jan-22 18:00 282 6 gusting 13 3.9
2019-Jan-22 17:50 279 6 gusting 9 3.9
2019-Jan-22 17:40 300 6 gusting 9 3.3
2019-Jan-22 17:30 301 6 gusting 13 3.3
2019-Jan-22 17:20 286 9 gusting 14 3.3
2019-Jan-22 17:10 315 9 gusting 16 3.9
2019-Jan-22 17:00 001 9 gusting 13 3.9
2019-Jan-22 16:50 001 8 gusting 17 3.9
2019-Jan-22 16:40 001 9 gusting 16 4.4
2019-Jan-22 16:30 006 6 gusting 19 5.0
2019-Jan-22 16:20 323 9 gusting 18 5.6
2019-Jan-22 16:10 299 13 gusting 18 5.6
2019-Jan-22 16:00 292 6 gusting 21 6.1
2019-Jan-22 15:50 302 13 gusting 21 6.1
2019-Jan-22 15:40 311 6 gusting 19 6.1
2019-Jan-22 15:30 304 13 gusting 15 6.7
2019-Jan-22 15:20 312 6 gusting 17 6.7
2019-Jan-22 15:10 324 8 gusting 19 6.1
2019-Jan-22 15:00 326 9 gusting 19 6.1
2019-Jan-22 14:50 324 7 gusting 17 6.1
2019-Jan-22 14:40 316 8 gusting 18 6.1
2019-Jan-22 14:30 298 8 gusting 20 6.1
2019-Jan-22 14:20 310 10 gusting 18 6.1
2019-Jan-22 14:10 299 12 gusting 21 6.1
2019-Jan-22 14:00 314 9 gusting 19 6.1
2019-Jan-22 13:50 319 13 gusting 19 6.1
2019-Jan-22 13:40 280 10 gusting 19 5.6
2019-Jan-22 13:30 292 9 gusting 17 5.6
2019-Jan-22 13:20 277 9 gusting 14 5.6
2019-Jan-22 13:10 001 9 gusting 17 5.6
2019-Jan-22 13:00 001 8 gusting 17 5.6
2019-Jan-22 12:50 028 6 gusting 17 5.6
2019-Jan-22 12:40 022 9 gusting 16 5.0
2019-Jan-22 12:30 295 10 gusting 18 5.0
2019-Jan-22 12:20 295 13 gusting 18 5.0
2019-Jan-22 12:10 282 7 gusting 18 4.4
2019-Jan-22 12:00 297 14 gusting 18 4.4
2019-Jan-22 11:50 282 6 gusting 15 4.4
2019-Jan-22 11:40 282 7 gusting 13 4.4
2019-Jan-22 11:30 282 6 gusting 14 3.9
2019-Jan-22 11:20 285 3 gusting 13 3.9
2019-Jan-22 11:10 259 6 gusting 13 3.3
2019-Jan-22 11:00 265 6 gusting 13 3.3
2019-Jan-22 10:50 270 6 gusting 9 2.8
2019-Jan-22 10:40 288 4 gusting 14 2.2
2019-Jan-22 10:30 289 5 gusting 13 2.2
2019-Jan-22 10:20 257 6 gusting 11 2.8
2019-Jan-22 10:10 285 6 gusting 9 2.2
2019-Jan-22 10:00 288 5 gusting 11 1.1
2019-Jan-22 09:50 294 5 gusting 9 0.6
2019-Jan-22 09:40 311 5 gusting 11 0.6
2019-Jan-22 09:30 310 3 gusting 9 0.6
2019-Jan-22 09:20 312 6 gusting 9 -0.0
2019-Jan-22 09:10 310 6 gusting 10 -0.0
2019-Jan-22 09:00 308 3 gusting 9 -0.6
2019-Jan-22 08:50 311 5 gusting 9 -0.6
2019-Jan-22 08:40 312 6 gusting 12 -0.6
2019-Jan-22 08:30 315 5 gusting 9 -0.6
2019-Jan-22 08:20 308 6 gusting 12 -0.6
2019-Jan-22 08:10 314 7 gusting 13 -0.6
2019-Jan-22 08:00 313 7 gusting 13 -1.1
2019-Jan-22 07:50 319 2 gusting 9 -1.1
2019-Jan-22 07:40 001 5 gusting 11 -1.7
2019-Jan-22 07:30 349 6 gusting 11 -1.7
2019-Jan-22 07:20 001 5 gusting 12 -1.7
2019-Jan-22 07:10 001 6 gusting 12 -1.7
2019-Jan-22 07:00 001 3 gusting 6 -0.6
2019-Jan-22 06:50 354 2 gusting 8 -1.1
2019-Jan-22 06:40 358 4 gusting 9 -1.1
2019-Jan-22 06:30 001 5 gusting 8 -1.7
2019-Jan-22 06:20 018 3 gusting 7 -1.7
2019-Jan-22 06:10 029 3 gusting 9 -1.7
2019-Jan-22 06:00 046 6 gusting 9 -1.7
2019-Jan-22 05:50 043 3 gusting 10 -1.7
2019-Jan-22 05:40 046 4 gusting 7 -1.7
2019-Jan-22 05:30 046 3 gusting 6 -1.7
2019-Jan-22 05:20 043 3 gusting 6 -1.1
2019-Jan-22 05:10 045 2 gusting 6 -0.6
2019-Jan-22 05:00 046 6 gusting 7 -0.6
2019-Jan-22 04:50 045 3 gusting 6 -0.6
2019-Jan-22 04:40 046 2 gusting 7 -0.6
2019-Jan-22 04:30 046 3 gusting 9 -0.6
2019-Jan-22 04:20 046 3 gusting 8 -0.6
2019-Jan-22 04:10 045 1 gusting 9 -0.6
2019-Jan-22 04:00 045 8 gusting 12 -0.6
2019-Jan-22 03:50 046 5 gusting 13 -0.6
2019-Jan-22 03:40 045 5 gusting 10 -0.6
2019-Jan-22 03:30 045 2 gusting 5 -1.1
2019-Jan-22 03:20 045 2 gusting 4 -1.7
2019-Jan-22 03:10 046 -1.1
2019-Jan-22 03:00 045 1 gusting 5 -0.6
2019-Jan-22 02:50 046 3 gusting 8 -0.0
2019-Jan-22 02:40 045 5 gusting 11 -0.6
2019-Jan-22 02:30 046 3 gusting 5 -1.1
2019-Jan-22 02:20 045 1 gusting 2 -0.6
2019-Jan-22 02:10 045 -0.6
2019-Jan-22 02:00 046 1 gusting 3 -0.6
2019-Jan-22 01:50 045 1 gusting 4 -0.0
2019-Jan-22 01:40 046 3 gusting 7 0.6
2019-Jan-22 01:30 046 3 gusting 8 0.6
2019-Jan-22 01:20 046 3 gusting 9 1.1
2019-Jan-22 01:10 041 4 gusting 8 0.6
2019-Jan-22 01:00 046 5 gusting 8 0.6
2019-Jan-22 00:50 045 4 gusting 7 0.6
2019-Jan-22 00:40 046 1 gusting 5 0.6
2019-Jan-22 00:30 046 1 gusting 7 0.6
2019-Jan-22 00:20 046 3 gusting 6 0.6
2019-Jan-22 00:10 046 3 gusting 5 0.6
2019-Jan-22 00:00 046 2 gusting 6 0.6
2019-Jan-21 23:50 046 3 gusting 6 0.6
2019-Jan-21 23:40 045 2 gusting 6 0.6
2019-Jan-21 23:30 045 3 gusting 9 0.6
2019-Jan-21 23:20 045 1 gusting 4 0.6
2019-Jan-21 23:10 044 0 gusting 3 0.6
2019-Jan-21 23:00 045 2 gusting 3 0.6
2019-Jan-21 22:50 046 3 gusting 3 1.1
2019-Jan-21 22:40 046 1 gusting 6 2.2
2019-Jan-21 22:30 045 3 gusting 6 2.2
2019-Jan-21 22:20 045 2 gusting 5 2.2
2019-Jan-21 22:10 045 1 gusting 3 1.7
2019-Jan-21 22:00 045 1 gusting 6 1.7
2019-Jan-21 21:50 046 3 gusting 6 1.7
2019-Jan-21 21:40 045 3 gusting 6 2.2
2019-Jan-21 21:30 046 2 gusting 7 2.2
2019-Jan-21 21:20 045 3 gusting 5 1.7
2019-Jan-21 21:10 042 0 gusting 4 1.7
2019-Jan-21 21:00 045 1 gusting 3 1.1
2019-Jan-21 20:50 046 1.1
2019-Jan-21 20:40 045 1 gusting 2 1.1
2019-Jan-21 20:30 045 0 gusting 1 1.7
2019-Jan-21 20:20 045 1 gusting 2 1.7
2019-Jan-21 20:10 045 0 gusting 1 2.2
2019-Jan-21 20:00 045 1.7
2019-Jan-21 19:50 045 2.2
2019-Jan-21 19:40 045 2.2
2019-Jan-21 19:30 046 2.8
2019-Jan-21 19:20 045 2.8
2019-Jan-21 19:10 045 3.3
2019-Jan-21 19:00 045 1 gusting 5 3.9
2019-Jan-21 18:50 045 2 gusting 4 3.9
2019-Jan-21 18:40 045 1 gusting 2 3.9
2019-Jan-21 18:30 045 3.9
2019-Jan-21 18:20 045 0 gusting 4 4.4
2019-Jan-21 18:10 045 1 gusting 4 5.0
2019-Jan-21 18:00 046 2 gusting 3 5.0
2019-Jan-21 17:50 045 1 gusting 6 5.0
2019-Jan-21 17:40 046 4 gusting 6 5.6
2019-Jan-21 17:30 046 3 gusting 6 6.1
2019-Jan-21 17:20 046 5 gusting 11 6.1
2019-Jan-21 17:10 044 9 gusting 11 6.7
2019-Jan-21 17:00 045 8 gusting 13 6.7
2019-Jan-21 16:50 044 7 gusting 13 7.2
2019-Jan-21 16:40 046 7 gusting 11 7.2
2019-Jan-21 16:30 045 5 gusting 13 7.8
2019-Jan-21 16:20 045 8 gusting 14 7.8
2019-Jan-21 16:10 045 6 gusting 11 7.8
2019-Jan-21 16:00 046 7 gusting 18 7.8
2019-Jan-21 15:50 040 8 gusting 14 7.8
2019-Jan-21 15:40 323 6 gusting 17 7.8
2019-Jan-21 15:30 355 13 gusting 19 7.8
2019-Jan-21 15:20 015 10 gusting 18 7.8
2019-Jan-21 15:10 347 10 gusting 19 8.3
2019-Jan-21 15:00 330 9 gusting 15 8.3
2019-Jan-21 14:50 319 8 gusting 17 8.3
2019-Jan-21 14:40 292 11 gusting 17 8.3
2019-Jan-21 14:30 308 9 gusting 19 8.9
2019-Jan-21 14:20 002 13 gusting 19 8.9
2019-Jan-21 14:10 045 13 gusting 18 8.9
2019-Jan-21 14:00 045 6 gusting 18 8.9
2019-Jan-21 13:50 305 9 gusting 18 8.9
2019-Jan-21 13:40 297 9 gusting 18 8.9
2019-Jan-21 13:30 339 5 gusting 18 8.9
2019-Jan-21 13:20 316 7 gusting 14 8.9
2019-Jan-21 13:10 325 6 gusting 14 8.9
2019-Jan-21 13:00 297 5 gusting 13 8.9
2019-Jan-21 12:50 312 4 gusting 10 8.3
2019-Jan-21 12:40 315 6 gusting 14 8.9
2019-Jan-21 12:30 312 6 gusting 11 8.9
2019-Jan-21 12:20 299 4 gusting 13 8.3
2019-Jan-21 12:10 276 6 gusting 11 8.3
2019-Jan-21 12:00 288 6 gusting 13 8.3
2019-Jan-21 11:50 297 6 gusting 13 8.3
2019-Jan-21 11:40 068 11 gusting 18 7.8
2019-Jan-21 11:30 046 6 gusting 9 7.8
2019-Jan-21 11:20 025 3 gusting 13 7.2
2019-Jan-21 11:10 035 9 gusting 13 6.7
2019-Jan-21 11:00 001 6 gusting 13 6.7
2019-Jan-21 10:50 310 3 gusting 9 6.1
2019-Jan-21 10:40 314 3 gusting 9 5.6
2019-Jan-21 10:30 296 5 gusting 12 5.6
2019-Jan-21 10:20 277 6 gusting 13 5.0
2019-Jan-21 10:00 234 6 gusting 11 4.4
2019-Jan-21 09:50 234 2 gusting 9 3.3
2019-Jan-21 09:40 227 4 gusting 7 3.3
2019-Jan-21 09:30 225 4 gusting 7 2.8
2019-Jan-21 09:20 225 3 gusting 8 2.2
2019-Jan-21 09:10 208 3 gusting 7 2.2
2019-Jan-21 09:00 204 2 gusting 5 1.7
2019-Jan-21 08:50 151 1 gusting 5 1.7
2019-Jan-21 08:40 135 1.1
2019-Jan-21 08:30 135 0.6
2019-Jan-21 08:20 147 1 gusting 3 0.6
2019-Jan-21 08:10 181 0 gusting 4 -0.0
2019-Jan-21 08:00 181 1 gusting 6 -0.6
2019-Jan-21 07:50 181 -1.1
2019-Jan-21 07:40 181 -1.7
2019-Jan-21 07:30 181 0 gusting 3 -1.7
2019-Jan-21 07:20 181 0 gusting 1 -0.6
2019-Jan-21 07:10 181 -1.1
2019-Jan-21 07:00 290 0 gusting 4 -0.6
2019-Jan-21 06:50 314 1 gusting 3 -0.0
2019-Jan-21 06:40 314 -0.0
2019-Jan-21 06:30 297 1 gusting 3 -0.0
2019-Jan-21 06:20 182 -0.6
2019-Jan-21 06:10 196 1 gusting 3 -0.0
2019-Jan-21 06:00 335 0.6
2019-Jan-21 05:50 317 0.6
2019-Jan-21 05:40 215 1 gusting 4 -0.0
2019-Jan-21 05:30 195 0 gusting 5 -0.0
2019-Jan-21 05:20 268 1.1
2019-Jan-21 05:10 284 1.1
2019-Jan-21 05:00 344 0 gusting 2 1.1
2019-Jan-21 04:50 327 1.1
2019-Jan-21 04:40 316 1.1
2019-Jan-21 04:30 297 1.1
2019-Jan-21 04:20 275 1 gusting 3 1.1
2019-Jan-21 04:10 259 1 gusting 3 1.1
2019-Jan-21 04:00 292 1 gusting 5 1.1
2019-Jan-21 03:50 282 1.1
2019-Jan-21 03:40 236 0 gusting 2 0.6
2019-Jan-21 03:30 165 0.6
2019-Jan-21 03:20 135 0 gusting 1 1.1
2019-Jan-21 03:10 074 0.6
2019-Jan-21 03:00 270 0.6
2019-Jan-21 02:50 181 0.6
2019-Jan-21 02:40 176 0.6
2019-Jan-21 02:30 181 1 gusting 1 0.6
2019-Jan-21 02:20 260 1.1
2019-Jan-21 02:10 267 1.1
2019-Jan-21 02:00 259 3 gusting 6 1.7
2019-Jan-21 01:50 272 3 gusting 6 1.7
2019-Jan-21 01:40 090 1 gusting 4 1.1
2019-Jan-21 01:30 090 2 gusting 3 1.1
2019-Jan-21 01:20 090 1.1
2019-Jan-21 01:10 090 0 gusting 4 1.7
2019-Jan-21 01:00 078 1 gusting 4 1.7
2019-Jan-21 00:50 068 1 gusting 3 1.7
2019-Jan-21 00:40 064 0 gusting 9 2.2
2019-Jan-21 00:30 090 5 gusting 6 2.2
2019-Jan-21 00:20 090 0 gusting 4 2.2
2019-Jan-21 00:10 090 0 gusting 1 2.2
2019-Jan-21 00:00 090 2.2